TIME,DELAY(SENSOR),PRES,T(CTD),SAL,OXYGEN,RAWTEMP,T(OPTODE),TCPHASE,TURBIDITY,TURBIDITY_GAIN,FLUOR,BETA,CDOM,ED411.5,ED443.8,ED489.6,PAR,COMP,TILT,TILTY(TILT),CHECK
1341953691,6467,252.4499969482422000,4.9135999679565430,34.9858016967773440,350.0578002929687500,761.4639282226562000,4.8850312232971190,34.1014595031738300,16,3,48,106,63,2147247341,2147559569,2147568849,2147364442,317,0,-12,2443
1341953754,6466,249.0399932861328000,4.9130001068115230,34.9861984252929700,350.0100097656250000,761.4609985351562000,4.8851318359375000,34.1030693054199200,16,3,48,105,65,2147246235,2147560351,2147570225,2147364840,3418,0,-12,4528
1341953815,6466,245.5800018310547000,4.9128999710083010,34.9860000610351560,349.9855041503906000,761.4622192382812000,4.8850917816162110,34.1037902832031250,10,3,48,104,64,2147246248,2147562166,2147569041,2147362984,3023,0,-12,14348
1341953877,6504,242.0800018310547000,4.9128999710083010,34.9856986999511700,350.0686035156250000,761.4663085937500000,4.8849492073059080,34.1012611389160160,16,3,48,106,64,2147245476,2147560040,2147570888,2147363944,2717,0,-12,56629
1341953939,6467,238.5899963378906200,4.9121999740600590,34.9861984252929700,350.1229858398437500,761.4688720703125000,4.8848571777343750,34.0993194580078100,16,3,48,104,64,2147243487,2147561987,2147569992,2147362252,2467,0,-12,64131
1341954001,6469,235.1699981689453000,4.9123997688293460,34.9858016967773440,350.0249938964844000,761.4738769531250000,4.8846840858459470,34.1027984619140600,16,3,48,106,65,2147246326,2147556287,2147570134,2147363034,2283,0,-12,51646
1341954063,6466,231.8200073242187500,4.9120001792907715,34.9860000610351560,350.0935058593750000,761.4802246093750000,4.8844618797302250,34.1007385253906250,16,3,49,111,64,2147245196,2147559510,2147571698,2147361947,2089,0,-12,16696
1341954125,6467,228.4799957275390600,4.9109997749328610,34.9866981506347660,350.0502929687500000,761.4871215820312000,4.8842220306396480,34.1021881103515600,16,3,50,104,64,2147242467,2147560461,2147569101,2147362911,1899,0,-12,2900
1341954187,6469,225.1799926757812500,4.9110999107360840,34.9864997863769500,350.0910034179687500,761.4987792968750000,4.8838100433349610,34.1010017395019500,16,3,50,104,63,2147242363,2147559597,2147572420,2147360657,1690,0,-12,58046
1341954249,6467,221.9400024414062500,4.9109997749328610,34.9861984252929700,350.1971130371094000,761.5045776367188000,4.8836059570312500,34.0975303649902340,16,3,49,104,64,2147245581,2147562060,2147571715,2147361741,1454,0,-12,34857
1341954313,6466,218.6300048828125000,4.9109001159667970,34.9860992431640600,350.2874145507812500,761.5081787109375000,4.8834838867187500,34.0945892333984400,16,3,48,105,64,2147244854,2147561348,2147570984,2147362034,1226,0,-12,13432
1341954375,6468,215.4199981689453000,4.9105000495910645,34.9863014221191400,350.4244995117187500,761.5181884765625000,4.8831291198730470,34.0900993347168000,16,3,48,104,63,2147242966,2147559916,2147571729,2147363784,1052,0,-12,14658
1341954439,6469,212.1600036621093800,4.9109001159667970,34.9855003356933600,350.5107116699219000,761.5225830078125000,4.8829770088195800,34.0875587463378900,10,3,48,103,64,2147241256,2147559130,2147572227,2147362632,802,0,-12,64132
1341954501,6467,209.0399932861328000,4.9099001884460450,34.9863014221191400,350.3684997558594000,761.5305786132812000,4.8826961517333980,34.0925483703613300,16,3,47,104,64,2147246435,2147558211,2147573681,2147360717,498,0,-12,59126
1341954565,6467,205.8699951171875000,4.9103999137878420,34.9855995178222660,350.3761901855469000,761.5339965820312000,4.8825778961181640,34.0920600891113300,16,3,49,105,64,2147244150,2147562331,2147573823,2147359076,67,0,-12,22799
1341954627,6468,202.8699951171875000,4.9099998474121090,34.9858016967773440,350.3457031250000000,761.5380249023438000,4.8824372291564940,34.0933799743652340,16,3,50,107,65,2147242010,2147560393,2147573055,2147361517,3378,0,-12,62359
1341954691,6468,199.8000030517578000,4.9092998504638670,34.9864997863769500,350.3277893066406000,761.5443725585938000,4.8822140693664550,34.0939216613769500,16,3,48,107,64,2147247460,2147561170,2147570431,2147363062,2993,0,-12,18131
1341954753,6467,196.8399963378906200,4.9093999862670900,34.9861984252929700,350.3352966308594000,761.5485839843750000,4.8820648193359375,34.0938796997070300,16,3,49,105,64,2147243972,2147561005,2147573773,2147360489,2773,0,-12,23207
1341954817,6468,193.8300018310547000,4.9092998504638670,34.9860992431640600,350.3150024414062500,761.5505981445312000,4.8819980621337890,34.0945281982421900,16,3,49,107,64,2147246336,2147558852,2147573375,2147363277,2539,0,-12,49451
1341954879,6469,190.8999938964843800,4.9093999862670900,34.9860992431640600,350.2182922363281000,761.5537719726562000,4.8818821907043460,34.0978507995605500,16,3,49,108,64,2147241874,2147560274,2147574358,2147361284,2287,0,-12,62399
1341954943,6469,187.9400024414062500,4.9089999198913570,34.9860992431640600,350.2381896972656000,761.5593261718750000,4.8816928863525390,34.0973205566406250,16,3,48,107,64,2147244105,2147562143,2147573947,2147361818,2067,0,-12,2492
1341955005,6465,185.0899963378906200,4.9085998535156250,34.9864997863769500,350.3186035156250000,761.5645751953125000,4.8815059661865230,34.0945701599121100,16,3,50,106,64,2147242413,2147559894,2147572461,2147360319,1879,0,-12,35386
1341955069,6468,182.1900024414062500,4.9092998504638670,34.9855003356933600,350.2934875488281000,761.5665283203125000,4.8814392089843750,34.0953712463378900,16,3,50,109,64,2147245604,2147563788,2147579021,2147363181,1689,0,-12,10906
1341955131,6469,179.3800048828125000,4.9084000587463380,34.9864006042480500,350.2560119628906000,761.5701904296875000,4.8813099861145020,34.0970001220703100,16,3,48,107,64,2147243885,2147561321,2147577096,2147363465,1469,0,-12,49792
1341955195,6469,176.5099945068359400,4.9084000587463380,34.9863014221191400,350.2645874023437500,761.5709838867188000,4.8812808990478520,34.0967597961425800,16,3,50,108,64,2147240964,2147559244,2147578061,2147360073,1224,0,-12,22870
1341955257,6467,173.7899932861328000,4.9082999229431150,34.9864006042480500,350.0732116699219000,761.5703125000000000,4.8813080787658690,34.1031303405761700,16,3,48,112,63,2147244927,2147561306,2147576250,2147359624,994,0,-12,64721
1341955321,6467,171.0099945068359400,4.9088997840881350,34.9858016967773440,350.1347961425781000,761.5709838867188000,4.8812828063964840,34.1007614135742200,16,3,48,110,64,2147241540,2147560516,2147578980,2147363259,756,0,-12,51393
1341955383,6467,168.3099975585937500,4.9085001945495605,34.9861984252929700,350.1138916015625000,761.5689697265625000,4.8813509941101070,34.1017799377441400,16,3,49,115,64,2147241348,2147557718,2147579885,2147362015,542,0,-12,25914
1341955447,6469,165.5800018310547000,4.9085998535156250,34.9859008789062500,350.0060119628906000,761.5742187500000000,4.8811697959899900,34.1056098937988300,16,3,49,110,64,2147241073,2147557123,2147574883,2147362020,231,0,-12,24246
1341955509,6467,162.9400024414062500,4.9084000587463380,34.9860000610351560,349.8547058105469000,761.5748901367188000,4.8811450004577640,34.1104087829589840,16,3,50,114,64,2147242550,2147559885,2147579432,2147362696,3496,0,-12,8953
1341955573,6466,160.2299957275390600,4.9081001281738280,34.9860992431640600,350.0119934082031000,761.5803222656250000,4.8809590339660645,34.1053695678710940,10,3,50,119,64,2147243944,2147555249,2147579377,2147364214,3178,0,-12,16306
1341955635,6467,157.5899963378906200,4.9082999229431150,34.9860000610351560,349.9635925292969000,761.5822753906250000,4.8808841705322270,34.1068611145019500,16,3,50,111,64,2147243922,2147559328,2147580082,2147365265,2919,0,-12,54277
1341955699,6504,154.8699951171875000,4.9085998535156250,34.9860000610351560,349.9075012207031000,761.5701293945312000,4.8813152313232420,34.1087989807128900,16,3,50,122,64,2147245709,2147556982,2147579994,2147363172,2662,0,-12,34734
1341955761,6467,152.2700042724609400,4.9088997840881350,34.9856986999511700,349.7556152343750000,761.5684204101562000,4.8813719749450680,34.1138496398925800,16,3,50,117,64,2147244950,2147564319,2147580579,2147363021,2481,0,-12,33534
1341955825,6467,149.5899963378906200,4.9085998535156250,34.9860000610351560,349.6521911621094000,761.5689086914062000,4.8813571929931640,34.1172904968261700,16,3,50,114,64,2147245658,2147559505,2147582253,2147363245,2292,0,-12,60915
1341955887,6467,147.0000000000000000,4.9086999893188480,34.9859008789062500,349.6900024414062500,761.5728149414062000,4.8812198638916020,34.1161499023437500,16,3,50,113,64,2147243135,2147562024,2147583222,2147362377,2139,0,-12,63556
1341955951,6469,144.3000030517578000,4.9085998535156250,34.9860000610351560,349.7688903808594000,761.5668945312500000,4.8814277648925780,34.1132202148437500,16,3,50,127,64,2147244822,2147561256,2147584909,2147363140,1896,0,-12,33021
1341956013,6468,141.6999969482422000,4.9082999229431150,34.9863014221191400,349.6358032226562500,761.5678100585938000,4.8813948631286620,34.1178703308105500,16,3,49,113,64,2147242514,2147560507,2147582500,2147363817,1665,0,-12,24125
1341956077,6469,139.0200042724609400,4.9085001945495605,34.9859008789062500,349.6583862304687500,761.5692138671875000,4.8813438415527340,34.1169891357421900,11,3,50,113,64,2147244643,2147558770,2147586115,2147362751,1468,0,-12,44101
1341956139,6466,136.4199981689453000,4.9079999923706055,34.9864997863769500,349.6083068847656000,761.5742187500000000,4.8811697959899900,34.1188011169433600,16,3,50,114,65,2147245283,2147558824,2147589823,2147364342,1271,0,-12,15978
1341956203,6467,133.7599945068359400,4.9082999229431150,34.9863014221191400,349.6571044921875000,761.5679931640625000,4.8813900947570800,34.1169891357421900,16,3,48,118,64,2147243506,2147561421,2147588589,2147364319,1125,0,-12,5974
1341956265,6466,131.2500000000000000,4.9088997840881350,34.9856986999511700,349.7788085937500000,761.5693969726562000,4.8813381195068360,34.1130599975585940,16,3,50,111,64,2147241430,2147560104,2147593480,2147361961,876,0,-12,51775
1341956329,6469,128.7100067138672000,4.9089999198913570,34.9859008789062500,349.6217956542969000,761.5578002929688000,4.8817439079284670,34.1181488037109400,16,3,50,118,64,2147242363,2147560232,2147596681,2147363007,574,0,-12,32599
1341956391,6468,126.2799987792968800,4.9092998504638670,34.9858016967773440,349.5097045898437500,761.5463867187500000,4.8821430206298830,34.1217918395996100,16,3,50,116,65,2147244022,2147563345,2147595725,2147365471,241,0,-12,64309
1341956483,6469,121.9000015258789000,4.9098000526428220,34.9856986999511700,349.4565124511719000,761.5535278320312000,4.8818969726562500,34.1235313415527340,16,3,50,152,64,2147242349,2147563442,2147599377,2147365832,3210,0,-12,38098
1341956545,6466,118.0400009155273400,4.9099998474121090,34.9856986999511700,349.5020141601562500,761.5427856445312000,4.8822689056396480,34.1220016479492200,16,3,50,119,64,2147242468,2147563963,2147600863,2147369549,2896,0,-12,42274
1341956609,6469,114.0599975585937500,4.9107999801635740,34.9859008789062500,349.4352111816406000,761.5178222656250000,4.8831458091735840,34.1236381530761700,67,3,49,120,64,2147243533,2147564196,2147606463,2147368553,2570,0,-12,42532
1341956671,6466,110.2500000000000000,4.9119000434875490,34.9856986999511700,349.3879089355469000,761.4808959960938000,4.8844361305236820,34.1244392395019500,16,3,49,122,64,2147241664,2147564269,2147608530,2147367099,2283,0,-12,34336
1341956760,6468,105.5599975585937500,4.9130997657775880,34.9852981567382800,349.3792114257812500,761.4548950195312000,4.8853468894958500,34.1240806579589840,14,3,50,119,65,2147246230,2147564036,2147614532,2147368196,2007,0,-12,41837
1341956822,6503,103.1900024414062500,4.9142999649047850,34.9851989746093750,349.3742980957031000,761.4188232421875000,4.8866100311279300,34.1237907409668000,16,3,49,118,64,2147247286,2147565549,2147614409,2147366281,1832,0,-12,50645
1341956886,6469,100.8899993896484400,4.9165000915527340,34.9852981567382800,349.4260864257812500,761.3491821289062000,4.8890500068664550,34.1203498840332000,16,3,50,122,64,2147245375,2147569014,2147618449,2147370166,1676,0,-12,3891
1341956948,6467,98.7300033569336000,4.9197001457214355,34.9850997924804700,349.2882080078125000,761.2575073242188000,4.8922581672668460,34.1233406066894500,16,3,50,119,64,2147243336,2147568406,2147618271,2147373778,1551,0,-12,14320
1341957037,6466,94.9499969482421900,4.9222002029418945,34.9850997924804700,349.3623046875000000,761.1981811523438000,4.8943328857421875,34.1198081970214840,16,3,50,124,66,2147243587,2147571094,2147625348,2147372822,1177,0,-12,31688
1341957099,6467,91.5000000000000000,4.9282999038696290,34.9846000671386700,349.1903991699219000,761.0402832031250000,4.8998599052429200,34.1224403381347660,16,3,50,121,64,2147246175,2147569594,2147629960,2147373247,825,0,-12,63678
1341957163,6467,87.8600006103515600,4.9328999519348145,34.9850006103515600,349.0763854980469000,760.8953857421875000,4.9049339294433590,34.1233711242675800,16,3,50,125,65,2147245315,2147572287,2147639418,2147374422,362,0,-12,26596
1341957225,6465,84.2900009155273400,4.9365000724792480,34.9849014282226560,349.0990905761719000,760.7821044921875000,4.9089012145996090,34.1202507019043000,16,3,50,122,64,2147243606,2147573714,2147651611,2147375533,76,0,-12,2875
1341957290,6468,80.6999969482421900,4.9404001235961910,34.9844017028808600,349.0347900390625000,760.6845703125000000,4.9123120307922360,34.1207199096679700,16,3,50,125,65,2147244173,2147580831,2147660858,2147380909,3432,0,-12,33583
1341957351,6467,77.2500000000000000,4.9482002258300780,34.9846992492675800,348.9547119140625000,760.3535156250000000,4.9238991737365720,34.1170005798339840,16,3,52,122,64,2147245594,2147580451,2147672246,2147381430,3200,0,-12,36824
1341957415,6467,73.8199996948242200,4.9668998718261720,34.9836006164550800,348.8572998046875000,759.9481201171875000,4.9380860328674320,34.1119995117187500,16,3,52,128,64,2147250409,2147582985,2147678112,2147381833,2932,0,-12,18062
1341957477,6468,70.5199966430664000,4.9727997779846190,34.9847984313964840,348.7403869628906000,759.7570800781250000,4.9447669982910160,34.1121711730957000,16,3,52,126,64,2147247748,2147586692,2147689074,2147383725,2568,0,-12,18431
1341957541,6468,67.1399993896484400,4.9851999282836910,34.9849014282226560,348.6857910156250000,759.3502807617188000,4.9590001106262210,34.1060218811035160,16,3,54,134,65,2147251345,2147588479,2147702934,2147391556,2402,0,-12,11051
1341957603,6466,63.9300003051757800,4.9930000305175780,34.9855995178222660,348.6158142089844000,759.1602783203125000,4.9656448364257810,34.1045494079589840,16,3,54,135,66,2147256009,2147594747,2147719597,2147395944,2170,0,-12,27981
1341957667,6467,60.6699981689453100,5.0219001770019530,34.9855003356933600,348.3692016601562500,758.2556762695312000,4.9972782135009770,34.0949707031250000,16,3,59,133,66,2147258770,2147604168,2147739048,2147400676,2125,0,-12,4698
1341957729,6502,57.5800018310546900,5.1187000274658200,34.9860992431640600,347.9931945800781000,756.2017211914062000,5.0690631866455080,34.0674285888671900,16,3,71,138,65,2147258884,2147614234,2147763968,2147406303,1766,0,-12,61661
1341957793,6467,54.5600013732910160,5.1477999687194820,34.9882011413574200,347.9403076171875000,754.6118164062500000,5.1245841979980470,34.0382308959960940,16,3,79,142,65,2147264008,2147619762,2147785329,2147414683,1539,0,-12,24203
1341957855,6467,51.7400016784668000,5.1869997978210450,34.9894981384277340,348.1427917480469000,753.6221923828125000,5.1591210365295410,34.0117416381835940,17,3,90,146,66,2147269165,2147627702,2147802413,2147422719,1571,0,-12,47824
1341957919,6467,49.0299987792968750,5.2755999565124510,34.9921989440918000,347.9831848144531000,751.2993164062500000,5.2401351928710940,33.9715995788574200,33,3,109,152,66,2147273065,2147632580,2147817343,2147429229,1461,0,-12,45279
1341957981,6471,46.5400009155273440,5.3661999702453610,34.9944992065429700,348.1744995117187500,748.6987915039062000,5.3307361602783200,33.9143791198730500,17,3,132,162,64,2147281183,2147639679,2147837897,2147438202,1280,0,-12,19191
1341958045,6470,44.0200004577636700,5.4270000457763670,34.9970016479492200,348.8405151367187500,746.6469116210938000,5.4021549224853520,33.8520584106445300,19,3,146,177,65,2147284132,2147646290,2147859743,2147449987,1283,0,-12,39291
1341958107,6470,41.4900016784668000,5.5048999786376950,35.0000991821289060,349.9318847656250000,744.6510009765625000,5.4715647697448730,33.7768898010253900,21,3,150,171,66,2147296612,2147663227,2147899775,2147465965,979,0,-12,9115
1341958171,6470,38.5499992370605500,5.5936999320983890,35.0037002563476560,350.4707946777344000,741.9906005859375000,5.5639948844909670,33.7076110839843750,19,3,137,169,66,2147314130,2147686971,2147959976,2147491299,761,0,-12,44283
1341958233,6466,35.0800018310546900,5.6946001052856445,35.0051002502441400,351.3529052734375000,739.4166870117188000,5.6533179283142090,33.6288108825683600,22,3,158,199,65,2147357540,2147745462,2148090842,2147546929,274,0,-12,19604
1341958298,6469,30.8899993896484380,5.9295997619628910,35.0015983581543000,351.9576110839844000,732.9370727539062000,5.8777642250061035,33.4850311279296900,36,3,319,310,66,2147455396,2147869795,2148358143,2147655309,3283,0,-12,58945
1341958360,6506,26.8600006103515620,6.1841998100280760,35.0052986145019500,356.2717895507812500,725.7479248046875000,6.1260910034179690,33.2079582214355500,69,3,488,455,66,2147639346,2148097929,2148789540,2147833915,2448,0,-12,13338
1341958449,6470,23.2600002288818360,6.5499000549316410,35.0155982971191400,360.9601135253906000,713.8450927734375000,6.5356388092041020,32.8359489440918000,66,3,583,405,65,2147815277,2148302939,2149144123,2147986811,2254,0,-12,63190
1341958723,6471,21.6399993896484380,8.8240003585815430,35.0107994079589840,373.3223876953125000,649.0944213867188000,8.7307167053222660,31.3212509155273440,108,3,932,711,64,2148092639,2148592168,2149585631,2148180488,1399,0,-11,19311
1341958828,6469,18.4400005340576170,9.8120002746582030,35.0200004577636700,374.1890869140625000,620.8493041992188000,9.6721630096435550,30.8335304260253900,95,3,930,699,64,2149047474,2149645759,2151065320,2148819478,1149,0,-11,38594
1341958889,6470,15.0799999237060550,10.1634998321533200,35.0372009277343750,373.7961120605469000,606.2667846679688000,10.1547203063964840,30.6131992340087900,99,3,893,624,64,2150346573,2151046280,2152788072,2149605960,468,0,-11,8426
1341958953,6471,12.3299999237060550,10.8079996109008790,35.0223007202148440,369.1418151855469000,584.9906005859375000,10.8547296524047850,30.4203891754150400,120,3,873,576,62,2151948288,2152766075,2154744511,2150527116,3094,2,-11,40638
1341959015,6470,10.3800001144409180,11.1784000396728520,35.0475006103515600,364.7034912109375000,575.9592895507812000,11.1504697799682620,30.4155597686767580,91,3,796,496,62,2153474034,2154398770,2156546930,2151442765,733,1,-15,58009
1341959095,6470,7.8699998855590820,11.2547998428344730,35.0537986755371100,361.9692077636719000,572.9727783203125000,11.2480897903442380,30.4534492492675780,100,3,747,530,62,2157002687,2158096237,2160176223,2153478961,1058,-10,-3,31235
1341959159,6470,4.8800001144409180,11.4472999572753900,35.0584983825683600,358.4053039550781000,565.8161010742188000,11.4816799163818360,30.4539299011230470,82,3,688,495,62,2162410550,2163669284,2165332608,2156880886,974,-6,-9,58945
1341959209,6469,0.3000000119209290,0.0000000000000000,0.0000000000000000,357.7535095214844000,565.2905273437500000,11.4988098144531250,30.4661998748779300,83,3,672,511,62,2165315944,2166647286,2167950491,2159085718,585,-6,-18,35320
1341959250,6470,1.7999999523162842,0.0000000000000000,0.0000000000000000,357.1744079589844000,564.6107177734375000,11.5209703445434570,30.4737892150878900,82,3,655,493,62,2170084634,2171472886,2171909366,2163517293,2601,2,-20,26275
